星链-34548 (STARLINK-34548)

导读 | 豆包AI

STARLINK-34548是美国太空探索技术公司(SpaceX)星链星座的一员,于2025年6月28日发射升空。星链项目旨在构建全球卫星互联网星座,为全球偏远地区、海洋空域等提供高速低延迟互联网接入服务,STARLINK-34548将助力星链进一步扩大小卫星组网覆盖范围,提升星座服务容量与稳定性。

Basic Information
目录编号:
64716
目录名称:
STARLINK-34548
国际标识:
2025-142W
轨道中心:
EARTH
卫星名称:
星链-34548
卫星全名:
星链-34548 (STARLINK-34548)
卫星状态:
在轨 (已飞行305 天)
发射日期:
2025-06-28 UTC
国别 :
美国 (US)
星等 :
--
Orbit Information
数据来源 国际轨道数据 AOE轨道数据
星历时间 2026-04-29T14:00:03+0800
10小时前
查看轨道信息
2026-04-23T01:00:00+0800
6天前
查看轨道信息
半长轴 6950.136km 6950.202km
偏心率 0.0003708 0.0003422
轨道倾角 70.002° 69.998°
近地点辐角 266.186° 272.580°
升交点赤经 186.856° 203.346°
平近点角 221.085° 218.891°
近地点 569.421km 569.686km
远地点 574.577km 574.444km
周期 96.106分钟 96.107分钟
每日圈数 14.983487 14.983271
Detailed Information
固有亮度:
5
最大亮度:
2.5
卫星平台:
Starlink V1.0
覆盖范围:
全球
运营商:
太空探索技术公司
运营商所在国:
美国
制造商(研发单位):
太空探索技术公司
制造商所在国:
美国
使用方式:
暂无
Satellite Introduction
Starlink 计划是 SpaceX 推出的全球卫星互联网项目,通过发射低轨道卫星,为全球尤其是偏远地区提供高速、低延迟的互联网服务。自 2019 年起,Starlink 已部署数千颗卫星,旨在缩小全球数字鸿沟,推动互联网普及。该项目还为军事、航空等行业提供通信支持,带来广泛经济效益。
2D Orbit Map
3D Orbit Map
Orbit Altitude Analysis Chart
Orbit Inclination Analysis Chart
Orbit Comprehensive Analysis Chart
View Comprehensive Chart